Notices

What's New in latest Release from April 7th, 2021:

- Updated Glossary, including Speed of Maximum Gust, and Total Hourly Precipitation

- Updated national and regional climate services offices contacts and prices information

- Addition of station inventory lists for 1981-2010, 1971-2000, and 1961-1990 Normals.

If you haven't already, please take our survey and provide feedback about our website: https://eccc.sondage-survey.ca/f/LanguageSelection.aspx?s=442ca660-fcf1-47c0-95a9-59707d6fd709

Hourly Data Report for March 04, 2021

MIRAMICHI RCS
NEW BRUNSWICK
Current Station Operator: ECCC - MSC

47°00'34.000" N
65°27'54.000" W
33.00 m
8100989
71744
ACQ

Download Data

Hourly Data (March 2021)
Hourly Data Report for March 4, 2021
TIME
LST
Temp Definition
°C
Dew Point Definition
°C
Rel Hum Definition
%
Precip. Amount Definition
mm

Wind Dir Definition
10's deg

Wind Spd Definition
km/h
Visibility Definition
km
Stn Press Definition
kPa
Hmdx Definition


Wind Chill Definition


Weather Definition


00:00 -6.7 -12.9 61 LegendMM 27 21   99.06   -14 LegendNANA
01:00 -7.8 -13.9 62 LegendMM 27 18   99.09   -15 LegendNANA
02:00 -8.9 -14.7 63 LegendMM 26 19   99.04   -16 LegendNANA
03:00 -9.6 -15.1 64 LegendMM 26 17   98.95   -17 LegendNANA
04:00 -10.0 -15.2 66 LegendMM 26 20   98.85   -18 LegendNANA
05:00 -10.3 -15.3 67 LegendMM 25 16   98.82   -17 LegendNANA
06:00 -10.7 -15.6 67 LegendMM 25 18   98.73   -18 LegendNANA
07:00 -10.8 -15.9 66 LegendMM 26 21   98.66   -19 LegendNANA
08:00 -10.3 -16.1 63 LegendMM 26 23   98.61   -19 LegendNANA
09:00 -9.3 -15.9 58 LegendMM 26 24   98.56   -18 LegendNANA
10:00 -8.0 -15.3 56 LegendMM 26 31   98.51   -17 LegendNANA
11:00 -6.8 -14.5 54 LegendMM 26 28   98.45   -15 LegendNANA
12:00 -6.2 -14.2 53 LegendMM 26 27   98.40   -14 LegendNANA
13:00 -6.0 -13.9 54 LegendMM 27 31   98.30   -14 LegendNANA
14:00 -4.7 -13.2 51 LegendMM 28 27   98.24   -12 LegendNANA
15:00 -4.1 -13.2 49 LegendMM 26 26   98.31   -11 LegendNANA
16:00 -4.3 -13.0 51 LegendMM 27 22   98.34   -11 LegendNANA
17:00 -6.6 -12.6 62 LegendMM 28 26   98.43   -15 LegendNANA
18:00 -7.6 -14.9 56 LegendMM 29 24   98.54   -16 LegendNANA
19:00 -8.5 -16.2 54 LegendMM 30 24   98.67   -17 LegendNANA
20:00 -9.0 -15.7 58 LegendMM 28 20   98.73   -17 LegendNANA
21:00 -9.3 -16.1 57 LegendMM 28 23   98.74   -18 LegendNANA
22:00 -9.8 -17.0 56 LegendMM 27 23   98.75   -18 LegendNANA
23:00 -10.3 -17.2 57 LegendMM 27 21   98.77   -18 LegendNANA

Notes on Data Quality.

Legend

  • E = Estimated
  • M = Missing
  • NA = Not Available*
  • [empty] = Indicates an unobserved value
Date modified: